Location: Arcones
(41.1182°N, 3.7238°W)
Time: 03:09:48
(UTC+00:00)

IRS-P3 - Pass Details

Date: 11 December 2025
Orbit: 810 x 816 km, 99.0° (Epoch: 14 January)

Event Time Altitude Azimuth Distance (km) Brightness Sun altitude
Rises 17:40:04 0° 149° (SSE) 3,325 7.2 -9.9°
Reaches altitude 10° 17:42:27 10° 144° (SE) 2,396 6.4 -10.3°
Maximum altitude 17:47:32 49° 70° (ENE) 1,037 4.3 -11.2°
Drops below altitude 10° 17:52:39 10° 357° (N) 2,408 6.4 -12.1°
Sets 17:55:03 0° 352° (N) 3,343 7.2 -12.6°
